GW3044 Weather Reports


Display with metric or nautical units.
time (UTC)temp
F
wind
direction
speed
MPH
gust
MPH
rain 1hr
in
rain 24hr
in
rain mn
in
humidity
%
barometer
mb
20260502170114 60 31 5.0 12.0 0.00 0.00 0.00 45 992.3
20260502164101 60 160 0.0 5.0 0.00 0.00 0.00 55 992.0
20260502163556 59 339 0.0 7.0 0.00 0.00 0.00 57 991.9
20260502163053 59 354 4.0 9.0 0.00 0.00 0.00 56 991.9
20260502162550 60 5 2.0 5.0 0.00 0.00 0.00 54 992.3
20260502162048 58 319 3.0 10.0 0.00 0.00 0.00 56 992.2
20260502161544 59 55 4.0 8.0 0.00 0.00 0.00 57 992.1
20260502161042 58 315 4.0 8.0 0.00 0.00 0.00 56 992.1
20260502160540 58 315 2.0 8.0 0.00 0.00 0.00 54 991.9
20260502151947 56 316 3.0 8.0 0.00 0.00 0.00 59 991.9
20260502151444 56 322 7.0 9.0 0.00 0.00 0.00 63 992.1
20260502150941 56 0 2.0 9.0 0.00 0.00 0.00 61 992.1
20260502150438 56 236 2.0 6.0 0.00 0.00 0.00 61 991.9
20260502130323 48 323 1.0 7.0 0.00 0.00 0.00 79 991.3
20260502123809 47 12 3.0 4.0 0.00 0.00 0.00 83 991.2
20260502123306 46 359 3.0 7.0 0.00 0.00 0.00 84 991.0
20260502122803 46 12 4.0 7.0 0.00 0.00 0.00 85 991.0
20260502122259 45 7 2.0 3.0 0.00 0.00 0.00 87 991.1
20260502121757 44 14 2.0 5.0 0.00 0.00 0.00 90 991.1
20260502121254 43 47 0.0 3.0 0.00 0.00 0.00 92 990.9
20260502120751 43 52 0.0 3.0 0.00 0.00 0.00 93 990.5
20260502120248 42 21 2.0 4.0 0.00 0.00 0.00 94 990.8
20260502115746 41 110 0.0 3.0 0.00 0.00 0.00 95 990.7
20260502115242 41 89 0.0 2.0 0.00 0.00 0.00 95 990.7
20260502114738 41 97 0.0 3.0 0.00 0.00 0.00 94 990.7
20260502114235 41 257 0.0 1.0 0.00 0.00 0.00 94 990.7
20260502113732 41 98 1.0 2.0 0.00 0.00 0.00 94 990.6
20260502113230 41 87 0.0 2.0 0.00 0.00 0.00 93 990.4
20260502112728 42 87 0.0 3.0 0.00 0.00 0.00 92 990.5
20260502112226 42 102 0.0 2.0 0.00 0.00 0.00 91 990.5
20260502111723 42 70 1.0 4.0 0.00 0.00 0.00 91 990.4
20260502111220 42 63 2.0 3.0 0.00 0.00 0.00 93 990.4
20260502110717 42 17 0.0 4.0 0.00 0.00 0.00 95 990.5
20260502110215 41 14 2.0 4.0 0.00 0.00 0.00 98 990.3
20260502105713 40 64 1.0 3.0 0.00 0.00 0.00 99 990.2
20260502105209 40 108 3.0 3.0 0.00 0.00 0.00 99 990.3
20260502104707 40 98 1.0 3.0 0.00 0.00 0.00 99 990.2
20260502104204 39 72 0.0 3.0 0.00 0.00 0.00 98 990.1
20260502103701 39 69 0.0 2.0 0.00 0.00 0.00 98 990.0
20260502103159 39 77 0.0 2.0 0.00 0.00 0.00 98 989.9
20260502102656 39 76 0.0 1.0 0.00 0.00 0.00 98 989.9
20260502102153 39 89 0.0 2.0 0.00 0.00 0.00 98 990.0
20260502101651 39 76 0.0 2.0 0.00 0.00 0.00 98 989.9
20260502101148 39 95 0.0 2.0 0.00 0.00 0.00 98 989.9
20260502100647 39 71 1.0 2.0 0.00 0.00 0.00 98 989.8
20260502100145 39 49 1.0 3.0 0.00 0.00 0.00 98 989.9
20260502091119 40 73 0.0 2.0 0.00 0.00 0.00 97 989.6
20260502090615 40 79 0.0 2.0 0.00 0.00 0.00 97 989.6
20260502090113 40 84 1.0 2.0 0.00 0.00 0.00 97 989.4
20260502071510 41 89 0.0 2.0 0.00 0.00 0.00 97 989.5
20260502071008 41 88 1.0 1.0 0.00 0.00 0.00 97 989.4
20260502070506 41 107 0.0 1.0 0.00 0.00 0.00 96 989.2
20260502070004 42 69 0.0 2.0 0.00 0.00 0.00 96 989.5
20260502065502 42 104 0.0 1.0 0.00 0.00 0.00 96 989.3
20260502065000 42 39 0.0 2.0 0.00 0.00 0.00 96 989.4
20260502064458 42 76 0.0 1.0 0.00 0.00 0.00 96 989.6
20260502063954 42 70 1.0 2.0 0.00 0.00 0.00 96 989.5
20260502063452 42 29 2.0 2.0 0.00 0.00 0.00 96 989.8
20260502062950 42 116 0.0 2.0 0.00 0.00 0.00 96 989.5
20260502062447 42 135 0.0 2.0 0.00 0.00 0.00 96 989.7
20260502061945 42 147 0.0 2.0 0.00 0.00 0.00 96 989.7
20260502061443 42 42 0.0 2.0 0.00 0.00 0.00 96 989.8
20260502060938 42 114 0.0 1.0 0.00 0.00 0.00 95 989.5
20260502060434 43 41 0.0 2.0 0.00 0.00 0.00 95 989.7
20260502055931 43 49 0.0 2.0 0.00 0.00 0.00 94 989.6
20260502055429 43 74 0.0 2.0 0.00 0.00 0.00 94 989.7
20260502054923 43 124 0.0 2.0 0.00 0.00 0.00 94 989.7
20260502054421 43 89 0.0 2.0 0.00 0.00 0.00 93 989.7
20260502053918 43 82 1.0 1.0 0.00 0.00 0.00 93 989.6
20260502053415 43 89 0.0 2.0 0.00 0.00 0.00 93 989.7
20260502052912 44 76 0.0 2.0 0.00 0.00 0.00 93 989.8
20260502052411 44 80 0.0 1.0 0.00 0.00 0.00 92 989.7
20260502051908 44 95 0.0 2.0 0.00 0.00 0.00 92 989.7
20260502051407 44 102 0.0 2.0 0.00 0.00 0.00 92 989.5
20260502050903 44 89 0.0 1.0 0.00 0.00 0.00 92 989.7
20260502050359 44 76 0.0 1.0 0.00 0.00 0.00 91 989.7
20260502045856 44 76 0.0 2.0 0.00 0.00 0.00 91 989.6
20260502045353 45 95 0.0 1.0 0.00 0.00 0.00 91 989.7
20260502044850 45 94 0.0 1.0 0.00 0.00 0.00 90 989.7
20260502044346 45 102 0.0 2.0 0.00 0.00 0.00 89 989.7
20260502043843 45 114 0.0 1.0 0.00 0.00 0.00 89 989.7
20260502043341 45 89 0.0 1.0 0.00 0.00 0.00 88 989.8
20260502042840 45 89 0.0 0.0 0.00 0.00 0.00 88 989.6
20260502042337 45 68 0.0 0.0 0.00 0.00 0.00 87 989.6
20260502041835 45 89 0.0 1.0 0.00 0.00 0.00 87 989.6
20260502041332 45 89 0.0 1.0 0.00 0.00 0.00 85 989.6
20260502040829 45 51 0.0 1.0 0.00 0.00 0.00 85 989.7
20260502040326 46 60 0.0 2.0 0.00 0.00 0.00 84 989.8
20260502035822 46 77 0.0 1.0 0.00 0.00 0.00 84 989.7
20260502035319 46 56 1.0 2.0 0.00 0.00 0.00 83 989.9
20260502034816 46 74 1.0 2.0 0.00 0.00 0.00 82 990.0
20260502034315 47 59 0.0 1.0 0.00 0.00 0.00 82 989.9
20260502033813 47 80 0.0 1.0 0.00 0.00 0.00 81 989.7
20260502033310 47 89 0.0 1.0 0.00 0.00 0.00 80 989.9
20260502032807 47 77 0.0 1.0 0.00 0.00 0.00 80 989.9
20260502032305 47 66 0.0 1.0 0.00 0.00 0.00 79 990.0
20260502031800 47 76 0.0 1.0 0.00 0.00 0.00 79 990.1
20260502031259 48 76 0.0 1.0 0.00 0.00 0.00 78 989.8
20260502030757 48 103 0.0 0.0 0.00 0.00 0.00 78 989.8
20260502030254 48 103 0.0 1.0 0.00 0.00 0.00 77 990.0
20260502025752 49 72 0.0 0.0 0.00 0.00 0.00 75 990.0
20260502025250 49 103 0.0 2.0 0.00 0.00 0.00 74 990.0
20260502024747 49 110 0.0 1.0 0.00 0.00 0.00 72 989.7
20260502024245 49 65 0.0 1.0 0.00 0.00 0.00 70 990.1
20260502023743 49 141 0.0 1.0 0.00 0.00 0.00 68 989.8
20260502023240 50 43 0.0 2.0 0.00 0.00 0.00 68 989.7
20260502022738 50 37 0.0 1.0 0.00 0.00 0.00 66 989.8
20260502022233 50 69 0.0 1.0 0.00 0.00 0.00 66 989.8
20260502021731 51 58 0.0 1.0 0.00 0.00 0.00 65 989.6
20260502021228 51 103 0.0 0.0 0.00 0.00 0.00 64 989.5
20260502020725 51 103 0.0 1.0 0.00 0.00 0.00 61 989.4
20260502020222 51 89 0.0 0.0 0.00 0.00 0.00 61 989.4
20260502015720 52 89 0.0 0.0 0.00 0.00 0.00 56 989.4
20260502015216 52 55 0.0 1.0 0.00 0.00 0.00 56 989.4
20260502014714 53 64 0.0 1.0 0.00 0.00 0.00 55 989.2
20260502014211 53 32 0.0 1.0 0.00 0.00 0.00 54 989.3
20260502013707 53 64 1.0 1.0 0.00 0.00 0.00 52 989.1
20260502013202 54 60 0.0 1.0 0.00 0.00 0.00 52 989.1
20260502012659 55 76 0.0 1.0 0.00 0.00 0.00 49 988.9
20260502012157 56 50 0.0 1.0 0.00 0.00 0.00 48 988.9
20260502011654 56 129 0.0 0.0 0.00 0.00 0.00 46 989.0
20260502011150 57 249 0.0 1.0 0.00 0.00 0.00 45 988.8
20260502010648 58 230 0.0 0.0 0.00 0.00 0.00 42 988.8
20260502010143 58 50 0.0 0.0 0.00 0.00 0.00 41 988.5
20260502005641 59 309 0.0 2.0 0.00 0.00 0.00 38 988.6
20260502005139 59 339 1.0 3.0 0.00 0.00 0.00 38 988.4
20260502004634 59 0 0.0 2.0 0.00 0.00 0.00 39 988.3
20260502004131 59 316 1.0 4.0 0.00 0.00 0.00 38 988.3
20260502003629 59 8 1.0 3.0 0.00 0.00 0.00 38 988.0
20260502003126 60 3 2.0 3.0 0.00 0.00 0.00 37 988.2
20260502002622 60 345 3.0 5.0 0.00 0.00 0.00 36 988.0
20260502002120 60 356 3.0 7.0 0.00 0.00 0.00 35 988.1
20260502001617 60 346 5.0 5.0 0.00 0.00 0.00 36 988.0
20260502001114 61 334 1.0 7.0 0.00 0.00 0.00 36 987.9
20260502000613 61 7 3.0 7.0 0.00 0.00 0.00 34 987.9
20260502000110 61 352 2.0 5.0 0.00 0.00 0.00 36 987.7
20260501235605 61 77 1.0 6.0 0.00 0.00 0.00 37 988.0
20260501235102 61 348 1.0 9.0 0.00 0.00 0.00 35 988.0
20260501234557 62 344 2.0 4.0 0.00 0.00 0.00 37 987.9
20260501234055 62 101 2.0 2.0 0.00 0.00 0.00 37 988.0
20260501233553 62 351 2.0 4.0 0.00 0.00 0.00 34 988.2
20260501233050 63 325 0.0 4.0 0.00 0.00 0.00 33 988.3
20260501232546 63 278 0.0 4.0 0.00 0.00 0.00 33 988.2
20260501232043 63 323 3.0 5.0 0.00 0.00 0.00 33 988.3
20260501231541 63 329 2.0 6.0 0.00 0.00 0.00 34 988.4
20260501231039 63 348 5.0 9.0 0.00 0.00 0.00 33 988.0
20260501230538 64 226 2.0 5.0 0.00 0.00 0.00 34 988.0
20260501230035 64 345 3.0 5.0 0.00 0.00 0.00 33 988.0
20260501225532 64 330 0.0 4.0 0.00 0.00 0.00 33 987.9
20260501225028 64 328 2.0 8.0 0.00 0.00 0.00 37 987.9
20260501224526 65 16 2.0 5.0 0.00 0.00 0.00 36 987.9
20260501224023 63 3 4.0 5.0 0.00 0.00 0.00 34 988.0
20260501223519 64 289 4.0 9.0 0.00 0.00 0.00 34 988.2
20260501223015 64 334 3.0 9.0 0.00 0.00 0.00 36 987.9
20260501222512 65 19 4.0 8.0 0.00 0.00 0.00 36 988.1
20260501222009 65 350 5.0 8.0 0.00 0.00 0.00 35 988.0
20260501221505 65 8 3.0 4.0 0.00 0.00 0.00 35 987.8
20260501221003 64 355 1.0 11.0 0.00 0.00 0.00 35 988.0
20260501220500 64 326 3.0 11.0 0.00 0.00 0.00 34 988.0
20260501215956 65 351 2.0 8.0 0.00 0.00 0.00 35 987.7
20260501215453 64 351 6.0 12.0 0.00 0.00 0.00 33 987.8
20260501214949 65 316 5.0 9.0 0.00 0.00 0.00 32 987.9
20260501214444 65 306 2.0 6.0 0.00 0.00 0.00 35 987.8
20260501213940 64 330 2.0 7.0 0.00 0.00 0.00 37 987.8
20260501213438 65 9 2.0 4.0 0.00 0.00 0.00 36 988.1
20260501212932 64 313 3.0 8.0 0.00 0.00 0.00 35 988.0
20260501212430 65 343 5.0 7.0 0.00 0.00 0.00 35 988.2
20260501211926 64 72 2.0 8.0 0.00 0.00 0.00 38 988.4
20260501211424 64 231 4.0 10.0 0.00 0.00 0.00 36 988.5
20260501210921 64 300 2.0 5.0 0.00 0.00 0.00 35 988.6
20260501210418 64 354 4.0 12.0 0.00 0.00 0.00 32 988.7
20260501205914 65 355 0.0 4.0 0.00 0.00 0.00 34 988.8
20260501205411 65 221 0.0 4.0 0.00 0.00 0.00 36 988.7
20260501204909 64 293 0.0 3.0 0.00 0.00 0.00 37 989.1
20260501204404 64 359 4.0 8.0 0.00 0.00 0.00 32 989.3
20260501203900 63 336 5.0 10.0 0.00 0.00 0.00 37 989.4
20260501203358 63 357 4.0 11.0 0.00 0.00 0.00 34 989.2
20260501202855 63 47 2.0 5.0 0.00 0.00 0.00 36 989.3
20260501202352 63 343 3.0 12.0 0.00 0.00 0.00 36 989.5
20260501201848 63 283 3.0 7.0 0.00 0.00 0.00 35 989.8
20260501201345 63 345 9.0 11.0 0.00 0.00 0.00 34 989.6
20260501200842 64 184 0.0 6.0 0.00 0.00 0.00 35 989.7
20260501200339 63 241 4.0 10.0 0.00 0.00 0.00 35 990.1
20260501195837 63 321 2.0 6.0 0.00 0.00 0.00 34 989.9
20260501195332 64 345 2.0 7.0 0.00 0.00 0.00 37 990.0
20260501194829 63 11 0.0 6.0 0.00 0.00 0.00 39 990.3
20260501194325 63 8 3.0 6.0 0.00 0.00 0.00 36 990.2
20260501193821 65 308 3.0 5.0 0.00 0.00 0.00 41 990.2
20260501193320 64 303 2.0 5.0 0.00 0.00 0.00 39 990.4
20260501192817 64 232 1.0 6.0 0.00 0.00 0.00 36 990.2
20260501192314 63 36 4.0 7.0 0.00 0.00 0.00 36 990.4
20260501191811 63 308 2.0 6.0 0.00 0.00 0.00 43 990.3
20260501191309 63 324 0.0 6.0 0.00 0.00 0.00 36 990.7
20260501190805 62 341 9.0 13.0 0.00 0.00 0.00 36 990.3
20260501190301 63 5 2.0 4.0 0.00 0.00 0.00 36 990.5
20260501185756 64 343 1.0 6.0 0.00 0.00 0.00 37 990.5
20260501185252 62 347 3.0 7.0 0.00 0.00 0.00 33 990.3
20260501184749 63 359 5.0 8.0 0.00 0.00 0.00 33 990.6
20260501184244 63 311 4.0 6.0 0.00 0.00 0.00 30 990.5
20260501183740 63 295 5.0 9.0 0.00 0.00 0.00 31 990.6
20260501183238 62 0 2.0 11.0 0.00 0.00 0.00 36 990.5
20260501182734 62 345 5.0 9.0 0.00 0.00 0.00 34 990.7
20260501182231 62 322 6.0 13.0 0.00 0.00 0.00 34 990.8
20260501181728 63 278 2.0 7.0 0.00 0.00 0.00 38 990.4
20260501181225 62 70 2.0 7.0 0.00 0.00 0.00 38 990.6
20260501180723 62 325 2.0 6.0 0.00 0.00 0.00 35 990.6
20260501180218 63 358 8.0 8.0 0.00 0.00 0.00 38 990.8
20260501175715 63 238 0.0 5.0 0.00 0.00 0.00 45 990.7
20260501175212 63 13 2.0 4.0 0.00 0.00 0.00 44 990.9
20260501174709 61 86 1.0 6.0 0.00 0.00 0.00 40 990.4
20260501174206 61 57 3.0 6.0 0.00 0.00 0.00 42 990.6
20260501173704 61 44 2.0 10.0 0.00 0.00 0.00 43 990.7
20260501173201 62 61 3.0 5.0 0.00 0.00 0.00 44 990.8
20260501172657 61 336 0.0 4.0 0.00 0.00 0.00 39 990.9
20260501172152 61 12 1.0 8.0 0.00 0.00 0.00 49 990.7
20260501171648 62 41 2.0 5.0 0.00 0.00 0.00 48 990.8
20260501171145 60 344 4.0 8.0 0.00 0.00 0.00 40 991.0